カタログに戻る

STARLINK-3202

運用中通信VLEO
NORAD 49742·PAYLOAD·🇺🇸 United States

打ち上げ Dec 2, 2021 から Cape Canaveral Space Force Station

Loading…

次のパス (今後24時間)

TLE

最新Source: CelesTrak SupGP

元期: Sep 14, 2026, 13:30 UTC

1 49742C 21115U   26257.56298611 -.00015513  00000+0 -44403-3 0  2577
2 49742  53.1599   9.2029 0001189  80.3872 100.8874 15.35394141    14

AllMySatでSTARLINK-3202をリアルタイム追跡

Download on the App Store